ニート彗星

189P/NEAT (2007)

English version
Home page
Total 6,336 html files since Dec. 4, 1995
Updated on September 24, 2007

---------------------------------------------------------------------

・ プロフィール

符号 189P/2007 N2
検出日 2007年7月15日
検出光度 15.8等
検出者 Lincoln Laboratory Near-Earth Asteroid Research project

・ 写真集

・ 軌道要素

                    Epoch = 2007 Aug.  8.0 TT
     T = 2007 July 25.90695 TT        Peri. =  15.27124
     e = 0.5976949                    Node  = 282.20178 2000.0
     q = 1.1733898 AU                 Incl. =  20.40165
       a =  2.9166666 AU   n = 0.19786724   P =   4.981 years

・ 星図

・ 光度変化

        m1 = 18.5 + 5 logΔ + 10.0 log r

---------------------------------------------------------------------

軌道要素は、 IAUC 8856 に掲載されたものです。
星図は StellaNavigator Ver.2.0 for Windows (アストロアーツ 編著 / アスキー出版局刊) で作成したものです。
光度グラフはComet for Windowsで作成したものです。

---------------------------------------------------------------------

Copyright(C) 1995-2008 Seiichi Yoshida (comet@aerith.net). All rights reserved.